Time,TemperatureF,DewpointF,PressureIn,WindDirection,WindDirectionDegrees,WindSpeedMPH,WindSpeedGustMPH,Humidity,HourlyPrecipIn,Conditions,Clouds,dailyrainin,SoftwareType,DateUTC
2013-10-01 00:00:00,56.0,52.8,30.08,SW,216,0.0,0.0,89,0.00, FG,,-99.99,VWS V12.06,2013-10-01 04:00:00,
2013-10-01 00:02:00,53.9,51.0,30.04,NW,306,0.0,0.0,90,0.00, FG,,-99.99,VWS V12.06,2013-10-01 04:02:00,
2013-10-01 00:30:00,56.0,52.5,30.08,WSW,250,0.0,0.0,88,0.00, FG,,-99.99,VWS V12.06,2013-10-01 04:30:00,
2013-10-01 00:32:00,54.1,51.2,30.04,NW,306,0.0,0.0,90,0.00, FG,,-99.99,VWS V12.06,2013-10-01 04:32:00,
2013-10-01 01:00:00,55.6,52.1,30.08,SSW,206,0.0,0.0,88,0.00,,CLR,-99.99,VWS V12.06,2013-10-01 05:00:00,
2013-10-01 01:30:00,55.4,52.2,30.07,SSW,210,2.0,2.0,89,0.00,,CLR,-99.99,VWS V12.06,2013-10-01 05:30:00,
2013-10-01 02:00:00,55.6,52.7,30.08,WSW,246,0.0,1.0,90,0.00,,CLR,-99.99,VWS V12.06,2013-10-01 06:00:00,
2013-10-01 02:30:00,55.9,52.7,30.08,WSW,242,2.0,3.0,89,0.00,,CLR,-99.99,VWS V12.06,2013-10-01 06:30:00,
2013-10-01 03:00:00,56.3,52.8,30.08,SW,225,1.0,1.0,88,0.00, FG,,-99.99,VWS V12.06,2013-10-01 07:00:00,
2013-10-01 03:30:00,56.9,52.8,30.08,SW,225,0.0,0.0,86,0.00, FG,,-99.99,VWS V12.06,2013-10-01 07:30:00,
2013-10-01 04:00:00,57.1,52.6,30.08,SW,225,0.0,0.0,85,0.00, FG,,-99.99,VWS V12.06,2013-10-01 08:00:00,
2013-10-01 04:30:00,56.6,52.5,30.08,SW,225,0.0,0.0,86,0.00, FG,,-99.99,VWS V12.06,2013-10-01 08:30:00,
2013-10-01 05:00:00,57.7,52.9,30.08,WNW,300,4.0,4.0,84,0.00, FG,,-99.99,VWS V12.06,2013-10-01 09:00:00,
2013-10-01 05:30:00,57.7,52.9,30.09,ENE,75,0.0,0.0,84,0.00, FG,,-99.99,VWS V12.06,2013-10-01 09:30:00,
2013-10-01 06:00:00,57.5,53.0,30.09,NE,34,0.0,2.0,85,0.00, BR,,-99.99,VWS V12.06,2013-10-01 10:00:00,
2013-10-01 06:30:00,57.0,52.9,30.10,NE,39,0.0,3.0,86,0.00, BR,,-99.99,VWS V12.06,2013-10-01 10:30:00,
2013-10-01 07:00:00,57.7,52.9,30.10,WSW,250,0.0,4.0,84,0.00, FG,,-99.99,VWS V12.06,2013-10-01 11:00:00,
2013-10-01 07:30:00,56.9,52.8,30.11,WSW,254,0.0,3.0,86,0.00, FG,,-99.99,VWS V12.06,2013-10-01 11:30:00,
2013-10-01 08:00:00,57.8,53.3,30.12,NNW,347,4.0,4.0,85,0.00, BR,,-99.99,VWS V12.06,2013-10-01 12:00:00,
2013-10-01 08:30:00,58.6,52.8,30.13,West,261,1.0,1.0,81,0.00, BR,,-99.99,VWS V12.06,2013-10-01 12:30:00,
2013-10-01 09:00:00,62.0,54.0,30.13,SE,144,0.0,0.0,75,0.00, FG,,-99.99,VWS V12.06,2013-10-01 13:00:00,
2013-10-01 09:30:00,63.4,55.0,30.14,SW,234,0.0,1.0,74,0.00, FG,,-99.99,VWS V12.06,2013-10-01 13:30:00,
2013-10-01 10:00:00,65.4,56.9,30.14,SW,227,0.0,0.0,74,0.00,,CLR,-99.99,VWS V12.06,2013-10-01 14:00:00,
2013-10-01 10:30:00,65.6,57.5,30.15,SW,227,1.0,1.0,75,0.00,,CLR,-99.99,VWS V12.06,2013-10-01 14:30:00,
2013-10-01 11:00:00,66.6,56.1,30.15,North,5,4.0,4.0,69,0.00,,CLR,-99.99,VWS V12.06,2013-10-01 15:00:00,
2013-10-01 11:30:00,67.3,55.6,30.15,NW,308,0.0,3.0,66,0.00,,CLR,-99.99,VWS V12.06,2013-10-01 15:30:00,
2013-10-01 12:00:00,67.4,55.7,30.14,North,350,0.0,1.0,66,0.00,,SCT030,-99.99,VWS V12.06,2013-10-01 16:00:00,
2013-10-01 12:30:00,67.9,55.3,30.14,SW,221,2.0,3.0,64,0.00,,SCT030,-99.99,VWS V12.06,2013-10-01 16:30:00,
2013-10-01 12:32:00,68.0,55.8,30.12,SSW,211,0.0,3.0,65,0.00,,SCT030,-99.99,VWS V12.06,2013-10-01 16:32:00,
2013-10-01 13:00:00,69.2,58.2,30.13,SW,217,0.0,0.0,68,0.00,,BKN060,-99.99,VWS V12.06,2013-10-01 17:00:00,
2013-10-01 13:30:00,67.7,58.7,30.11,SW,225,2.0,2.0,73,0.00,,BKN060,-99.99,VWS V12.06,2013-10-01 17:30:00,
2013-10-01 14:00:00,70.4,60.6,30.10,West,263,5.0,6.0,71,0.00,,OVC042,-99.99,VWS V12.06,2013-10-01 18:00:00,
2013-10-01 14:30:00,71.2,60.1,30.08,South,176,0.0,0.0,68,0.00,,OVC042,-99.99,VWS V12.06,2013-10-01 18:30:00,
2013-10-01 15:00:00,68.3,58.5,30.07,South,188,3.0,3.0,71,0.00,,SCT060,-99.99,VWS V12.06,2013-10-01 19:00:00,
2013-10-01 15:30:00,69.4,58.8,30.08,SSW,201,1.0,3.0,69,0.00,,SCT060,-99.99,VWS V12.06,2013-10-01 19:30:00,
2013-10-01 16:00:00,72.3,58.1,30.06,SSE,157,3.0,3.0,61,0.00,,SCT050,-99.99,VWS V12.06,2013-10-01 20:00:00,
2013-10-01 16:30:00,70.2,59.2,30.06,WNW,298,1.0,2.0,68,0.00,,SCT050,-99.99,VWS V12.06,2013-10-01 20:30:00,
2013-10-01 17:00:00,70.9,55.9,30.06,WNW,295,5.0,5.0,59,0.00,,SCT060,-99.99,VWS V12.06,2013-10-01 21:00:00,
2013-10-01 17:30:00,71.0,55.0,30.07,NW,319,2.0,3.0,57,0.00,,SCT060,-99.99,VWS V12.06,2013-10-01 21:30:00,
2013-10-01 18:00:00,68.9,54.5,30.07,WSW,252,0.0,0.0,60,0.00,,SCT055,-99.99,VWS V12.06,2013-10-01 22:00:00,
2013-10-01 18:30:00,67.1,53.7,30.07,NNW,330,4.0,6.0,62,0.00,,SCT055,-99.99,VWS V12.06,2013-10-01 22:30:00,
2013-10-01 19:00:00,64.0,53.6,30.07,SSE,151,1.0,1.0,69,0.00,,BKN050,-99.99,VWS V12.06,2013-10-01 23:00:00,
2013-10-01 19:30:00,61.8,54.2,30.08,WSW,243,1.0,3.0,76,0.00,,BKN050,-99.99,VWS V12.06,2013-10-01 23:30:00,
2013-10-01 19:32:00,62.3,55.7,30.06,West,274,2.0,3.0,79,0.00,,BKN050,-99.99,VWS V12.06,2013-10-01 23:32:00,
2013-10-01 20:00:00,61.1,54.5,30.09,WNW,300,6.0,6.0,79,0.00,,CLR,-99.99,VWS V12.06,2013-10-02 00:00:00,
2013-10-01 20:30:00,61.5,54.6,30.09,SSW,208,1.0,8.0,78,0.00,,CLR,-99.99,VWS V12.06,2013-10-02 00:30:00,
2013-10-01 21:00:00,61.9,55.0,30.09,West,264,1.0,1.0,78,0.00,,CLR,-99.99,VWS V12.06,2013-10-02 01:00:00,
2013-10-01 21:30:00,61.8,53.8,30.10,West,276,2.0,6.0,75,0.00,,CLR,-99.99,VWS V12.06,2013-10-02 01:30:00,
2013-10-01 22:00:00,62.2,53.8,30.10,NW,324,4.0,4.0,74,0.00,,CLR,-99.99,VWS V12.06,2013-10-02 02:00:00,
2013-10-01 22:30:00,62.3,53.9,30.10,SW,215,3.0,3.0,74,0.00,,CLR,-99.99,VWS V12.06,2013-10-02 02:30:00,
2013-10-01 23:00:00,62.4,54.0,30.10,WNW,285,6.0,9.0,74,0.00,,CLR,-99.99,VWS V12.06,2013-10-02 03:00:00,
2013-10-01 23:30:00,62.3,53.2,30.10,SSW,208,3.0,5.0,72,0.00,,CLR,-99.99,VWS V12.06,2013-10-02 03:30:00,
2013-10-01 23:32:00,56.1,53.2,30.09,NW,307,0.0,1.0,90,0.00,,CLR,-99.99,VWS V12.06,2013-10-02 03:32:00,